Date String (YYYY-MM-DD hh:mm:ss) UTC,Instrument flags,Ambient pressure (hPa),Sample flow (lpm),Bypass flow (lpm),Sample temperature (°C),Ambient temperature (°C),ASC tube jacket temperature (°C),LED temperature (°C),Box temperature (°C),Sample RH (%),Span deviation,Mass concentration (μg/m³),Mass concentration (μg/m³),Mass concentration (μg/m³)
DateTimeUTC,F1_M11,P_M11,Q1_M11,Q2_M11,T1_M11,T2_M11,T3_M11,T4_M11,T5_M11,U1_M11,ZSPAN_M11,X0_M11,X2_M11,X1_M11
2022-09-18 17:00:00,,0827.2,5.01,0.00,30.3,29.1,00.0,38.9,32.2,26.0,0001.3,0011.68,0007.12,0006.54
2022-09-18 17:01:00,,0827.2,5.00,0.00,30.3,28.5,00.0,38.9,32.2,25.9,0001.2,0011.74,0007.15,0006.58
2022-09-18 17:02:00,,0827.2,5.00,0.00,30.3,27.2,00.0,38.9,32.1,26.0,0000.9,0011.74,0007.19,0006.63
2022-09-18 17:03:00,,0827.2,5.01,0.00,30.2,26.8,00.0,38.9,32.0,26.3,0000.7,0011.32,0007.22,0006.66
2022-09-18 17:04:00,,0827.2,4.99,0.00,30.2,26.9,00.0,38.8,31.8,26.4,0000.4,0012.02,0007.29,0006.69
2022-09-18 17:05:00,,0827.2,5.00,0.00,30.1,27.3,00.0,38.8,31.7,26.4,0000.7,0012.44,0007.36,0006.71
2022-09-18 17:06:00,,0827.3,5.00,0.00,30.1,27.6,00.0,38.8,31.7,26.5,0000.5,0012.28,0007.33,0006.70
2022-09-18 17:07:00,,0827.2,5.00,0.00,30.0,27.9,00.0,38.7,31.8,26.3,0000.6,0012.70,0007.33,0006.70
2022-09-18 17:08:00,,0827.2,5.00,0.00,30.0,28.2,00.0,38.7,31.8,26.3,0000.2,0013.02,0007.35,0006.71
2022-09-18 17:09:00,,0827.2,5.00,0.00,30.0,28.3,00.0,38.7,31.8,26.5,0000.1,0013.11,0007.33,0006.70
2022-09-18 17:10:00,,0827.2,5.00,0.00,30.1,28.5,00.0,38.7,31.9,26.6,-000.1,0013.38,0007.28,0006.66
2022-09-18 17:11:00,,0827.2,5.01,0.00,30.1,28.7,00.0,38.8,31.9,26.1,-000.3,0013.69,0007.28,0006.64
2022-09-18 17:12:00,,0827.3,4.99,0.00,30.1,28.8,00.0,38.8,32.0,26.1,-000.4,0014.19,0007.27,0006.62
2022-09-18 17:13:00,,0827.2,5.01,0.00,30.1,28.9,00.0,38.8,32.0,26.4,0000.0,0014.62,0007.27,0006.57
2022-09-18 17:14:00,,0827.2,5.00,0.00,30.2,29.0,00.0,38.8,32.0,26.2,0000.1,0015.28,0007.26,0006.55
2022-09-18 17:15:00,,0827.3,4.99,0.00,30.2,29.0,00.0,38.8,32.1,26.2,0000.5,0014.69,0007.22,0006.55
2022-09-18 17:16:00,,0827.2,4.99,0.00,30.2,29.1,00.0,38.8,32.1,26.1,0000.5,0014.32,0007.21,0006.57
2022-09-18 17:17:00,,0827.2,5.01,0.00,30.3,29.2,00.0,38.9,32.2,25.9,0000.9,0014.60,0007.22,0006.59
2022-09-18 17:18:00,,0827.4,5.01,0.00,30.3,28.6,00.0,38.9,32.2,25.8,0001.1,0014.11,0007.24,0006.60
2022-09-18 17:19:00,,0827.2,5.01,0.00,30.3,27.3,00.0,38.9,32.0,26.1,0001.1,0013.45,0007.23,0006.61
2022-09-18 17:20:00,,0827.4,4.99,0.00,30.2,26.7,00.0,38.8,32.0,26.3,0000.7,0012.95,0007.22,0006.63
2022-09-18 17:21:00,,0827.3,5.01,0.00,30.1,26.9,00.0,38.8,31.8,26.4,0000.4,0012.68,0007.25,0006.65
2022-09-18 17:22:00,,0827.3,4.99,0.00,30.1,27.2,00.0,38.8,31.7,26.7,0000.7,0012.64,0007.29,0006.66
2022-09-18 17:23:00,,0827.3,4.99,0.00,30.0,27.6,00.0,38.7,31.7,26.7,0000.8,0012.20,0007.24,0006.67
2022-09-18 17:24:00,,0827.2,5.00,0.00,30.0,27.9,00.0,38.7,31.8,26.5,0000.4,0012.04,0007.23,0006.68
2022-09-18 17:25:00,,0827.1,5.01,0.00,30.0,28.1,00.0,38.7,31.8,26.3,0000.3,0011.30,0007.24,0006.68
2022-09-18 17:26:00,,0827.2,4.99,0.00,30.0,28.3,00.0,38.7,31.8,26.5,0000.1,0011.33,0007.22,0006.65
2022-09-18 17:27:00,,0827.2,5.01,0.00,30.0,28.5,00.0,38.7,31.9,25.9,-000.2,0011.28,0007.18,0006.63
2022-09-18 17:28:00,,0827.3,4.99,0.00,30.1,28.6,00.0,38.7,31.9,25.8,-000.6,0011.20,0007.20,0006.63
2022-09-18 17:29:00,,0827.2,4.99,0.00,30.1,28.8,00.0,38.7,32.0,25.7,-000.9,0011.16,0007.19,0006.64
2022-09-18 17:30:00,,0827.2,5.01,0.00,30.1,28.9,00.0,38.8,32.0,25.7,-001.0,0011.12,0007.17,0006.65
2022-09-18 17:31:00,,0827.2,4.99,0.00,30.1,28.9,00.0,38.8,32.0,25.5,-000.8,0011.26,0007.17,0006.63
2022-09-18 17:32:00,,0827.2,5.00,0.00,30.2,29.0,00.0,38.8,32.1,25.3,-000.9,0011.64,0007.14,0006.59
2022-09-18 17:33:00,,0827.2,5.01,0.00,30.2,29.1,00.0,38.8,32.1,25.3,-001.1,0012.04,0007.06,0006.56
2022-09-18 17:34:00,,0827.4,5.00,0.00,30.2,29.1,00.0,38.8,32.1,25.7,-001.1,0012.66,0007.03,0006.52
2022-09-18 17:35:00,,0827.2,5.00,0.00,30.3,28.6,00.0,38.8,32.2,26.0,-000.7,0012.31,0006.98,0006.48
2022-09-18 17:36:00,,0827.3,4.99,0.00,30.2,27.4,00.0,38.8,32.0,26.3,-000.5,0012.23,0006.92,0006.46
2022-09-18 17:37:00,,0827.2,5.00,0.00,30.2,26.7,00.0,38.8,32.0,26.4,-000.4,0012.34,0006.91,0006.47
2022-09-18 17:38:00,,0827.5,5.00,0.00,30.1,26.8,00.0,38.8,31.8,26.3,-000.2,0013.14,0006.93,0006.48
2022-09-18 17:39:00,,0827.2,5.00,0.00,30.0,27.1,00.0,38.7,31.7,26.5,0000.1,0014.20,0006.93,0006.46
2022-09-18 17:40:00,,0827.2,4.99,0.00,30.0,27.5,00.0,38.7,31.7,26.5,0000.4,0015.15,0006.90,0006.43
2022-09-18 17:41:00,,0827.3,5.00,0.00,30.0,27.8,00.0,38.7,31.7,26.4,0000.8,0016.42,0006.91,0006.39
2022-09-18 17:42:00,,0827.2,5.00,0.00,30.0,28.1,00.0,38.7,31.7,26.3,0000.6,0016.74,0006.94,0006.40
2022-09-18 17:43:00,,0827.2,5.00,0.00,30.0,28.3,00.0,38.7,31.7,26.4,0000.7,0017.10,0006.98,0006.42
2022-09-18 17:44:00,,0827.2,4.99,0.00,30.0,28.4,00.0,38.7,31.8,26.5,0000.3,0016.87,0007.03,0006.44
2022-09-18 17:45:00,,0827.2,5.00,0.00,30.0,28.6,00.0,38.7,31.9,26.2,0000.1,0016.50,0007.06,0006.46
2022-09-18 17:46:00,,0827.2,5.00,0.00,30.0,28.7,00.0,38.7,31.9,26.4,-000.0,0016.91,0007.06,0006.48
2022-09-18 17:47:00,,0827.2,5.00,0.00,30.1,28.8,00.0,38.7,32.0,26.4,-000.5,0016.91,0007.07,0006.46
2022-09-18 17:48:00,,0827.2,4.99,0.00,30.1,28.9,00.0,38.7,32.0,26.0,-000.7,0016.75,0007.06,0006.43
2022-09-18 17:49:00,,0827.2,5.01,0.00,30.1,29.0,00.0,38.8,32.0,26.1,-000.6,0015.99,0007.06,0006.41
2022-09-18 17:50:00,,0827.2,4.99,0.00,30.2,29.0,00.0,38.8,32.0,25.8,-000.5,0014.76,0007.02,0006.36
2022-09-18 17:51:00,,0827.2,5.01,0.00,30.2,28.5,00.0,38.8,32.1,25.7,-000.5,0013.80,0006.98,0006.34
2022-09-18 17:52:00,,0827.2,4.99,0.00,30.2,27.3,00.0,38.8,32.0,25.9,-000.9,0012.61,0006.97,0006.34
2022-09-18 17:53:00,,0827.2,5.00,0.00,30.1,26.7,00.0,38.7,31.9,26.1,-000.8,0012.20,0006.97,0006.33
2022-09-18 17:54:00,,0827.2,5.00,0.00,30.1,26.8,00.0,38.7,31.8,25.9,-000.6,0012.34,0006.99,0006.33
2022-09-18 17:55:00,,0827.2,5.00,0.00,30.0,27.1,00.0,38.7,31.6,26.1,-000.5,0011.93,0006.98,0006.31
2022-09-18 17:56:00,,0827.1,5.00,0.00,29.9,27.4,00.0,38.7,31.6,26.2,-000.7,0011.70,0006.98,0006.32
2022-09-18 17:57:00,,0827.1,4.99,0.00,29.9,27.7,00.0,38.6,31.7,26.5,-000.1,0011.04,0006.98,0006.33
2022-09-18 17:58:00,,0827.1,5.00,0.00,29.9,28.0,00.0,38.6,31.7,26.5,0000.6,0011.73,0006.99,0006.35
2022-09-18 17:59:00,,0827.1,5.00,0.00,30.0,28.2,00.0,38.6,31.8,26.3,0000.6,0011.73,0006.98,0006.35
